Lapse_Rate
7.0 6.8 6.6 6.6 6.6 6.4 6.2 5.8 5.6 5.5 5.7 5.6 5.1 5.1 5.3 5.3 5.3 5.5 5.5 5.6 5.7 5.6 5.4 5.4 5.4 5.3 5.3 5.3 5.5 5.5 5.5 5.3 5.3 5.2 5.1 5.1 5.2 5.3 5.3 5.3 5.2 5.4 5.3
7.1 6.7 6.6 6.7 6.4 6.2 6.1 6.0 5.7 5.4 5.5 5.4 5.2 5.1 5.1 5.4 5.5 5.5 5.6 5.5 5.5 5.5 5.5 5.3 5.3 5.2 5.1 5.1 5.2 5.3 5.4 5.4 5.4 5.3 5.3 5.3 5.4 5.4 5.1 5.1 4.9 4.8 4.7
7.0 6.8 6.6 6.7 6.3 6.1 5.9 6.0 5.8 5.3 5.3 5.5 5.3 5.4 5.3 5.3 5.3 5.5 5.5 5.6 5.5 5.4 5.2 5.3 5.4 5.3 5.3 5.3 5.3 5.4 5.2 5.3 5.0 5.2 5.4 5.3 5.2 5.0 4.9 4.7 4.9 4.6 4.9
6.9 6.7 6.6 6.6 6.3 6.2 6.0 5.8 5.6 5.4 5.4 5.5 5.5 5.4 5.3 5.4 5.5 5.6 5.6 5.4 5.3 5.1 5.0 5.0 4.9 4.8 4.8 5.0 5.0 5.1 4.9 4.9 5.1 5.2 5.3 5.0 4.9 4.9 4.9 4.8 5.0 5.0 5.0
6.8 6.5 6.5 6.3 6.3 6.1 6.1 5.9 5.5 5.5 5.5 5.4 5.5 5.6 5.4 5.3 5.3 5.2 5.1 5.2 5.2 5.1 5.0 4.9 4.6 4.3 4.5 4.5 4.6 4.8 4.8 4.7 5.0 5.0 4.9 4.9 4.9 4.8 5.0 5.1 5.1 4.8 4.8
6.8 6.2 6.2 6.1 6.2 6.3 6.1 5.8 5.7 5.4 5.3 5.2 5.1 5.0 5.1 5.0 4.9 4.8 4.8 4.8 4.8 4.9 5.0 4.9 4.6 4.5 4.5 4.6 4.6 4.5 4.4 4.4 4.4 4.4 4.6 4.7 4.8 4.9 4.8 4.7 4.8 4.8 4.6
6.5 6.4 6.4 6.3 6.4 6.3 5.8 5.9 5.8 5.4 5.0 4.9 4.8 4.8 4.9 4.9 4.7 4.6 4.6 4.6 4.6 4.5 4.5 4.6 4.7 4.8 4.6 4.4 4.4 4.5 4.4 4.6 4.6 4.7 4.7 4.8 4.7 4.4 4.7 4.7 4.7 4.6 4.5
6.8 6.6 6.3 6.3 6.2 6.2 5.6 5.7 5.5 5.3 5.0 4.7 4.6 4.6 4.6 4.6 4.5 4.4 4.5 4.5 4.5 4.6 4.5 4.4 4.5 4.5 4.6 4.6 4.5 4.5 4.5 4.6 4.6 4.7 4.7 4.7 4.8 4.8 4.6 4.9 4.8 4.7 4.6
6.8 6.4 6.2 6.2 6.0 6.0 5.7 5.7 5.4 4.8 4.4 4.4 4.5 4.5 4.5 4.6 4.7 4.6 4.6 4.5 4.6 4.6 4.7 4.6 4.6 4.6 4.5 4.4 4.3 4.4 4.4 4.3 4.3 4.4 4.7 4.9 4.8 4.8 4.9 4.8 4.8 4.8 5.1
6.7 6.5 6.2 6.0 6.0 5.9 5.8 5.7 5.4 5.0 4.7 4.5 4.5 4.5 4.6 4.7 4.8 4.7 4.7 4.9 4.9 4.9 4.8 4.8 4.7 4.6 4.5 4.4 4.4 4.4 4.4 4.4 4.3 4.3 4.5 4.8 4.9 5.0 5.1 5.2 5.1 5.0 4.9
6.8 6.6 6.5 6.3 6.0 5.8 5.6 5.7 5.4 4.6 4.7 4.6 4.5 4.6 4.4 4.4 4.6 4.7 4.7 4.9 5.0 5.0 4.9 4.8 4.6 4.6 4.5 4.4 4.5 4.4 4.3 4.3 4.5 4.6 4.9 5.2 5.5 5.6 5.6 5.5 5.5 5.3 5.2
6.8 6.8 6.6 6.4 6.0 5.7 5.6 5.5 5.3 5.0 4.7 4.8 4.5 4.7 4.4 4.3 4.4 4.8 4.7 4.9 4.9 4.9 4.9 4.9 4.7 4.8 4.8 4.6 4.5 4.4 4.5 4.6 4.6 5.0 5.3 5.6 5.7 5.7 5.6 5.6 5.6 5.5 5.3
6.7 6.6 6.6 6.3 5.9 5.9 5.7 5.5 4.8 4.8 4.4 4.6 4.5 4.7 4.7 4.8 4.9 4.8 4.9 5.1 4.9 5.0 4.9 4.6 5.0 4.8 4.6 5.0 5.0 5.0 5.0 5.0 5.2 5.4 5.6 5.6 5.6 5.5 5.6 5.6 5.3 5.4 5.3
6.4 6.5 6.3 6.0 6.0 5.9 5.7 5.2 5.0 5.0 4.7 4.7 4.7 5.0 5.0 5.0 5.2 4.9 5.0 5.2 4.9 4.9 4.9 4.6 4.9 5.0 5.1 5.4 5.2 5.2 5.4 5.3 5.3 5.3 5.3 5.4 5.5 5.6 5.5 5.5 5.5 5.3 5.1
6.5 6.5 6.4 6.1 6.0 5.9 5.8 5.6 5.3 5.2 5.0 4.9 4.9 5.0 5.1 5.2 5.2 5.2 5.0 5.0 4.9 4.6 4.7 5.1 5.1 5.2 5.6 5.6 5.5 5.4 5.4 5.3 5.3 5.3 5.4 5.5 5.6 5.6 5.5 5.5 5.3 5.0 4.6
6.7 6.7 6.4 6.0 5.9 5.8 5.6 5.5 5.3 4.8 4.9 4.9 5.0 5.2 5.4 5.4 5.6 5.4 5.5 5.1 5.2 5.1 5.0 5.2 5.4 5.5 5.6 5.6 5.5 5.4 5.4 5.3 5.4 5.5 5.6 5.6 5.7 5.5 5.5 5.5 5.2 4.8 4.4
6.6 6.3 5.9 5.7 5.6 5.5 5.4 5.4 4.9 4.6 4.8 4.8 5.0 5.2 5.4 5.5 5.4 5.3 5.5 5.7 5.4 5.3 5.3 5.4 5.5 5.5 5.4 5.2 5.3 5.2 5.4 5.5 5.5 5.5 5.5 5.7 5.7 5.6 5.6 5.5 5.0 4.7 4.2
6.3 6.0 5.7 5.5 5.4 5.3 5.2 5.2 5.2 5.2 5.3 5.3 5.4 5.4 5.5 5.5 5.5 5.6 5.6 5.5 5.3 5.3 5.3 5.3 5.3 5.3 5.4 5.4 5.4 5.3 5.6 5.5 5.5 5.6 5.7 5.7 5.7 5.8 5.4 5.1 5.0 4.8 4.4
6.1 5.8 5.6 5.5 5.4 5.3 5.3 5.3 5.4 5.5 5.7 5.8 5.7 5.8 5.7 5.7 5.7 5.7 5.6 5.5 5.3 4.8 5.0 5.2 5.2 5.3 5.4 5.6 5.8 5.5 5.7 5.8 5.8 6.1 5.8 5.9 5.6 5.4 5.2 5.1 5.0 4.9 4.8
5.9 5.6 5.5 5.5 5.4 5.3 5.4 5.5 5.6 5.6 5.6 5.5 5.7 5.9 5.5 5.5 5.5 5.5 5.5 5.4 5.2 5.1 5.0 5.1 5.4 5.6 6.0 6.1 6.1 6.0 6.1 5.9 6.0 5.7 5.5 5.6 5.5 5.3 5.2 5.2 5.1 5.2 5.1
5.7 5.5 5.4 5.3 5.3 5.3 5.3 5.3 5.3 5.4 5.5 5.4 5.4 5.2 5.3 5.3 5.0 4.8 5.2 5.2 5.1 5.0 5.2 5.2 5.1 5.6 6.2 6.2 6.2 6.3 6.6 6.1 5.8 5.7 5.8 5.5 5.3 5.3 5.3 5.3 5.4 5.6 5.7
5.6 5.4 4.9 4.3 5.2 5.1 4.9 5.0 4.8 4.5 4.5 4.5 4.9 5.5 5.3 5.2 5.2 4.9 4.9 4.9 5.1 5.3 5.4 5.6 6.0 6.3 6.3 6.4 6.7 6.4 6.1 5.8 5.9 5.6 5.5 5.3 5.3 5.3 5.3 5.5 5.7 6.0 6.0
4.7 4.5 4.6 4.3 4.4 4.6 4.7 4.5 4.5 4.5 4.4 4.3 4.1 4.0 5.1 5.1 5.0 5.0 4.9 4.8 5.1 5.3 5.2 5.6 5.8 6.2 6.3 6.3 6.1 6.1 6.0 5.8 5.5 5.3 5.3 5.3 5.3 5.5 5.5 5.7 6.0 6.1 6.1
4.5 4.4 4.5 4.6 4.8 4.9 4.9 5.0 5.0 5.0 4.8 4.6 4.5 4.6 4.6 4.5 4.3 4.2 4.4 4.7 4.8 4.8 5.2 5.4 5.6 5.5 5.4 5.5 5.5 5.5 5.4 5.5 5.2 5.1 5.3 5.3 5.3 5.5 5.8 5.9 6.1 6.3 6.2
4.8 4.7 5.0 4.9 5.3 5.0 5.1 5.1 5.4 5.2 5.0 5.0 5.1 5.3 5.2 4.8 4.8 4.7 4.7 4.5 4.5 4.5 4.5 4.7 5.0 5.2 5.3 5.2 5.1 4.7 4.9 5.0 4.9 5.1 5.1 5.3 5.5 5.7 5.9 6.1 6.2 6.3 6.4
4.7 5.1 5.1 5.0 5.0 5.0 5.3 5.3 5.4 5.1 5.3 5.2 5.1 5.1 5.0 4.8 4.8 4.7 4.7 4.5 4.4 4.7 4.4 4.4 4.5 4.4 4.4 4.4 4.7 5.1 4.9 5.0 5.0 5.1 5.1 5.3 5.6 5.9 6.0 6.1 6.3 6.4 6.5
Wind_Speed
8 6 4 3 3 4 4 8 7 7 6 7 7 8 8 9 9 8 8 7 7 5 4 3 2 4 4 4 3 4 4 5 5 1 2 3 7 7 9 12 11 13 16
8 6 4 4 3 4 4 8 7 7 6 6 6 7 8 9 10 10 9 9 9 9 9 3 4 3 4 4 2 2 2 2 2 4 2 4 6 5 5 7 8 13 15
8 7 4 4 5 6 5 6 6 6 8 7 8 7 8 9 9 10 11 10 11 11 10 9 9 7 7 6 6 4 2 3 3 2 3 3 2 2 4 5 5 9 14
7 5 6 4 5 6 4 5 7 5 8 8 7 6 7 9 9 9 10 10 10 11 10 10 10 9 7 7 6 6 6 6 5 6 4 3 3 2 2 3 4 5 5
5 7 7 4 4 7 4 5 5 6 7 8 7 6 7 9 8 8 9 10 10 10 10 10 10 13 16 12 5 6 6 5 4 4 5 3 3 2 2 2 3 4 5
3 6 4 4 5 8 3 4 8 5 5 6 7 7 8 8 12 12 7 7 8 8 9 9 8 11 14 14 15 15 10 4 5 3 3 4 3 3 1 3 3 2 2
5 8 5 4 5 8 5 6 8 5 5 5 6 6 8 9 11 11 8 6 7 8 8 7 9 7 7 10 11 14 14 12 12 8 7 6 4 3 2 5 2 3 2
3 6 6 3 4 8 6 6 7 5 4 4 5 5 7 6 10 13 17 8 8 9 9 9 9 9 11 9 11 12 13 13 11 9 9 8 7 6 4 4 6 6 4
2 1 4 7 5 6 6 8 7 6 4 4 5 5 6 7 10 13 12 6 8 10 10 12 8 9 13 14 9 10 11 11 15 17 16 14 14 14 10 5 4 4 4
5 6 7 7 4 3 5 6 7 6 6 4 6 7 8 7 11 13 11 2 5 7 8 9 15 10 10 13 5 5 6 6 6 7 6 5 6 8 13 9 8 2 3
5 6 7 8 8 6 5 4 3 7 7 7 7 6 7 8 7 11 14 4 2 4 5 5 6 8 10 11 10 5 5 4 3 4 4 4 3 6 7 10 11 7 8
6 8 9 9 7 6 8 6 6 3 9 8 5 6 6 7 11 10 12 13 10 6 5 5 4 4 9 9 5 6 7 8 6 2 3 4 4 5 6 8 9 10 12
8 10 10 10 9 7 7 7 5 6 6 6 5 4 4 3 4 8 11 11 11 5 5 7 6 2 7 7 3 6 7 6 2 2 3 3 4 4 4 5 6 6 7
9 9 9 9 9 8 6 5 4 4 4 4 4 5 3 4 4 3 3 6 7 7 5 2 3 3 6 5 4 4 4 6 5 3 3 3 2 2 2 3 2 1 2
8 9 9 8 8 8 7 5 5 4 2 3 3 3 4 4 3 3 1 4 4 4 4 2 5 5 2 2 2 1 2 2 1 2 1 2 2 1 2 2 3 2 2
7 6 6 6 6 6 6 7 13 8 10 8 8 4 3 6 6 5 5 5 3 5 5 8 2 2 1 1 1 2 2 2 2 2 2 3 2 3 3 1 2 3 3
8 7 6 6 6 6 6 6 7 6 8 8 7 7 6 6 5 3 2 2 4 5 7 2 2 1 1 2 2 3 1 4 2 2 2 1 2 2 4 1 2 2 1
6 4 5 4 4 4 4 5 7 7 7 6 2 3 5 3 2 2 2 5 6 7 7 2 2 1 2 2 3 2 0 2 3 2 2 2 2 4 3 2 3 2 3
7 5 5 5 5 3 4 4 4 3 5 7 6 5 5 3 1 4 4 6 9 2 2 2 2 2 3 2 3 3 4 3 3 2 4 4 3 5 3 4 1 1 2
7 7 5 6 5 5 4 5 5 4 2 3 5 7 7 6 6 6 6 8 5 4 2 4 3 3 4 2 3 4 3 4 5 6 7 4 3 4 5 3 5 4 7
7 5 4 4 4 4 4 4 4 3 2 2 2 7 9 6 7 7 6 6 4 5 4 4 5 5 5 3 4 5 6 6 6 6 7 5 5 5 5 5 6 5 6
6 6 3 5 4 2 3 0 1 1 0 0 3 6 5 6 8 4 4 4 4 3 5 5 6 6 7 6 5 5 6 8 6 6 6 7 6 6 6 6 7 7 7
5 4 5 4 2 3 7 6 4 4 4 3 2 4 7 5 7 7 6 6 5 4 7 6 6 7 10 8 9 8 8 8 8 7 6 7 7 7 7 7 8 8 8
5 2 2 3 5 6 7 7 7 3 6 6 6 4 4 5 5 6 5 6 7 8 8 10 10 10 10 9 9 10 12 13 11 10 10 8 9 8 7 9 9 10 8
2 2 3 2 3 4 7 7 6 9 4 6 5 3 5 6 6 7 7 7 7 7 10 11 13 12 12 13 15 15 7 5 5 3 8 14 10 12 10 9 9 10 11
3 5 3 5 5 4 5 5 5 6 6 6 4 3 5 7 8 9 7 6 8 9 12 11 14 17 17 17 17 17 13 15 12 11 11 13 10 10 10 11 13 11 12
Wind_Direction
154 134 151 96 83 52 24 60 18 29 21 25 22 14 21 28 36 61 59 48 65 67 57 359 287 239 254 267 255 268 257 234 252 277 83 76 53 71 58 49 48 65 53
143 135 147 129 76 68 22 71 61 35 38 47 30 30 38 44 44 59 61 54 57 51 39 24 17 312 314 312 316 294 280 273 268 269 118 82 72 65 75 71 47 42 61
155 146 153 138 108 91 50 41 71 51 58 51 54 38 42 54 64 68 73 66 58 55 52 48 33 44 46 41 46 30 27 57 66 63 81 71 107 113 78 62 62 53 51
159 161 151 179 113 101 94 70 72 43 59 55 37 43 53 61 61 61 74 76 73 66 61 55 49 42 41 51 53 49 72 77 78 87 83 87 91 107 115 100 68 51 61
181 197 169 176 137 109 92 76 71 47 51 61 46 26 43 55 33 59 71 78 84 82 76 66 57 58 56 51 53 36 55 63 60 73 74 63 50 59 59 97 97 90 59
220 239 194 146 140 136 138 126 95 65 70 59 62 52 49 56 359 8 40 76 75 76 84 91 96 89 73 69 72 65 51 60 76 80 82 83 74 51 48 109 128 167 101
267 252 244 158 178 162 173 151 118 95 95 79 74 57 66 63 6 357 5 71 81 76 78 86 91 93 100 97 105 90 68 54 54 69 79 58 57 18 28 128 87 75 89
257 321 329 30 301 171 175 124 126 129 119 106 87 81 77 66 3 348 343 70 79 81 80 74 74 77 37 67 82 77 68 54 48 65 66 65 55 68 97 107 110 109 113
76 330 324 327 326 169 161 140 143 140 146 128 104 97 90 75 14 358 340 90 73 66 62 36 71 77 10 3 89 91 92 94 84 88 90 84 63 40 16 234 179 197 154
21 11 4 349 317 176 132 158 141 141 153 140 110 78 54 90 29 0 352 138 111 105 99 75 46 35 16 7 74 92 90 83 91 120 127 130 82 72 39 16 343 38 126
34 43 38 30 26 35 78 78 136 159 135 126 116 99 70 34 45 9 4 46 140 102 83 80 62 32 33 28 33 67 71 107 191 170 141 115 104 69 54 30 9 3 356
58 57 51 47 41 37 59 48 37 75 129 131 146 108 62 36 22 28 33 30 26 79 84 78 74 53 59 20 68 10 334 302 261 76 64 50 37 57 72 52 52 47 53
68 63 63 62 56 42 56 58 57 42 95 91 79 103 92 52 49 40 38 38 32 102 90 76 111 155 141 102 16 294 285 262 32 66 65 66 71 42 189 145 122 118 99
81 74 69 68 61 46 47 51 63 74 89 92 108 128 121 111 94 86 81 87 57 77 122 181 213 167 65 77 234 257 22 11 9 45 51 48 71 40 44 344 358 215 194
96 91 86 81 81 73 59 40 67 43 47 119 126 120 136 124 101 67 156 175 155 159 159 202 224 210 158 126 74 35 141 189 79 46 12 13 32 64 38 4 345 331 343
103 98 94 101 100 104 101 87 54 53 60 56 64 92 62 83 118 87 54 45 15 20 243 242 224 276 302 63 183 174 153 256 32 23 8 356 2 348 355 45 330 340 347
110 126 126 148 130 125 124 119 103 65 65 61 78 78 80 123 106 111 134 225 257 297 249 260 271 264 324 302 283 284 241 56 340 348 347 338 336 71 257 312 296 282 265
111 358 134 123 119 127 128 143 147 150 131 123 100 128 93 111 140 214 295 298 211 221 259 275 240 258 287 300 284 253 139 193 216 304 294 311 311 305 287 265 249 305 301
152 120 111 95 76 75 95 82 80 84 102 117 131 182 142 136 175 270 272 262 290 283 259 222 271 282 266 274 286 311 333 325 342 293 250 269 287 275 264 270 160 319 300
89 45 114 133 142 109 98 90 92 95 147 144 191 151 150 177 198 209 218 253 278 272 241 268 225 254 284 279 282 258 253 247 245 241 258 258 270 278 287 259 263 255 208
127 146 329 135 106 86 77 67 52 51 72 72 156 71 54 231 235 201 218 214 249 268 264 283 289 233 217 247 262 257 254 263 239 244 264 241 256 270 268 262 272 246 254
138 182 168 102 114 181 38 64 255 5 16 258 167 132 126 253 276 270 251 265 275 253 273 277 272 264 257 229 230 233 262 264 254 256 256 265 262 247 255 262 264 253 258
160 165 159 173 229 138 219 223 238 230 243 231 255 168 176 222 256 270 268 259 255 256 269 256 260 277 281 264 251 244 256 263 272 263 254 256 254 252 255 258 262 254 250
170 241 311 250 24 334 335 325 357 320 293 299 286 225 234 237 236 248 271 288 275 253 247 249 248 262 285 267 253 244 250 255 263 275 281 271 276 262 249 264 272 264 263
285 281 357 48 274 344 348 359 332 306 296 207 238 299 330 329 298 282 274 250 249 248 248 246 250 257 255 254 268 260 148 162 233 300 280 280 268 274 275 279 266 262 256
71 291 14 22 345 333 336 304 321 342 347 324 323 340 299 290 274 270 263 251 265 278 264 256 255 248 247 253 242 241 207 194 195 206 241 257 264 258 254 257 254 264 262